Overview Statistics Trail Chart Weather Telemetry Raw packets
 

This is the latest recevied weather packets stored in our database for station/object IZ2XCK-13. If no packets are shown the sender has not sent any weather packets the latest 10 day(s).

<< 2 3 4 5 6 7 8 >>
Time Temp. Humidity Pressure Rain* Wind** Luminosity Snow
1788448419 30° C 43% 1020.7 hPa - - - -
1788447218 30° C 43% 1020.7 hPa - - - -
1788446018 31.11° C 40% 1020.7 hPa - - - -
1788444818 31.67° C 39% 1020.9 hPa - - - -
1788443617 32.78° C 38% 1021.1 hPa - - - -
1788442417 30.56° C 41% 1021.5 hPa - - - -
1788441217 32.22° C 39% 1021.6 hPa - - - -
1788440017 32.22° C 37% 1021.7 hPa - - - -
1788438816 30.56° C 41% 1021.7 hPa - - - -
1788437616 30.56° C 42% 1022 hPa - - - -
1788436416 28.89° C 45% 1022.2 hPa - - - -
1788435215 28.33° C 45% 1022.2 hPa - - - -
1788434015 27.22° C 43% 1022.4 hPa - - - -
1788432815 26.11° C 40% 1022.6 hPa - - - -
1788431614 26.11° C 43% 1022.7 hPa - - - -
1788430414 25° C 43% 1023.3 hPa - - - -
1788429214 24.44° C 48% 1022.9 hPa - - - -
1788428013 24.44° C 45% 1023.2 hPa - - - -
1788426813 23.89° C 48% 1023.2 hPa - - - -
1788425613 22.78° C 49% 1023.4 hPa - - - -
1788424413 22.22° C 50% 1023.4 hPa - - - -
1788423212 22.22° C 52% 1023.4 hPa - - - -
1788422012 21.67° C 50% 1023.3 hPa - - - -
1788420812 21.11° C 52% 1023.2 hPa - - - -
1788419611 21.11° C 50% 1023.5 hPa - - - -

* Rain since midnight (hover to see other rain measurements)
** Current wind speed in m/s (hover to see current wind gust speed)